Regional Weather Roundup
Issued by NWS Little Rock, AR

Home | Current Version | Previous Version | Graphics & Text | Print | Product List | Glossary On
Versions: 1 2 3 4 5 6 7 8 9 10 11 12 13 14 15 16 17 18 19 20 21 22 23 24 25 26 27 28
000
ASUS44 KLZK 301605
RWRLZK

WEATHER ROUNDUP FOR ARKANSAS
NATIONAL WEATHER SERVICE LITTLE ROCK AR
1100 AM CDT THU OCT 30 2014

NOTE: "FAIR" INDICATES FEW OR NO CLOUDS BELOW 12,000 FEET WITH NO
SIGNIFICANT WEATHER AND/OR OBSTRUCTIONS TO VISIBILITY.

ARZ001-003-010-029-301700-
NORTHWEST ARKANSAS

CITY           SKY/WX    TMP DP  RH WIND       PRES   REMARKS
FAYETTEVILLE   CLOUDY    63  42  46 SW13      30.13S
FORT SMITH     SUNNY     59  48  67 CALM      30.14F
HARRISON       SUNNY     59  45  59 E7        30.11F
BENTONVILLE    PTSUNNY   61  45  55 SW9       30.11F
ROGERS           N/A     61  45  55 SW10      30.11F
SILOAM SPGS    PTSUNNY   61  43  51 SW13      30.13F
HIGHFILL       PTSUNNY   59  45  59 SW14      30.11F
SPRINGDALE     PTSUNNY   63  41  45 SW13      30.14S
$$

ARZ004-005-016-301700-
NORTH CENTRAL ARKANSAS

CITY           SKY/WX    TMP DP  RH WIND       PRES   REMARKS
BATESVILLE     SUNNY     59  41  51 CALM      30.16R
FLIPPIN        SUNNY     54  39  58 CALM      30.13F
MTN HOME       MOSUNNY   59  41  51 VRB5      30.12F
$$

ARZ040-041-301700-
WEST CENTRAL ARKANSAS

CITY           SKY/WX    TMP DP  RH WIND       PRES   REMARKS
MENA           SUNNY     66  45  45 CALM      30.17F
MOUNT IDA      SUNNY     58  47  66 CALM      30.14F
$$

ARZ009-017-025-026-028-301700-
NORTHEAST ARKANSAS

CITY           SKY/WX    TMP DP  RH WIND       PRES   REMARKS
CORNING        FAIR      57  43  58 S6        30.17S
JONESBORO      SUNNY     58  44  60 SE7       30.16F
NEWPORT        SUNNY     59  43  55 S7        30.17F
WALNUT RIDGE   SUNNY     55  43  62 SE5       30.17R
BLYTHEVILLE    SUNNY     61  41  47 S6        30.17S
$$

ARZ022-023-033-042-044-301700-
CENTRAL ARKANSAS

CITY           SKY/WX    TMP DP  RH WIND       PRES   REMARKS
LITTLE ROCK    MOSUNNY   63  43  48 CALM      30.17S
N LITTLE ROCK  MOSUNNY   62  45  54 S6        30.17S
JACKSONVILLE   MOSUNNY   61  44  53 VRB1      30.16F
SEARCY         SUNNY     60  44  55 SE3       30.17F
HOT SPRINGS    SUNNY     60  50  69 CALM      30.17F
RUSSELLVILLE   MOSUNNY   57  47  69 CALM      30.15F
$$

ARZ036-301700-
EAST ARKANSAS

CITY           SKY/WX    TMP DP  RH WIND       PRES   REMARKS
WEST MEMPHIS   SUNNY     60  45  57 VRB3      30.16S
$$

ARZ050-053-066-070-073-301700-
SOUTHWEST ARKANSAS

CITY           SKY/WX    TMP DP  RH WIND       PRES   REMARKS
ARKADELPHIA    FAIR      60  55  83 CALM      30.18F
CAMDEN         SUNNY     64  48  55 CALM      30.18S
TEXARKANA      SUNNY     65  46  50 SW7       30.18S
DE QUEEN       SUNNY     62  49  62 SW6       30.17S
$$

ARZ056-057-069-301700-
SOUTHEAST ARKANSAS

CITY           SKY/WX    TMP DP  RH WIND       PRES   REMARKS
PINE BLUFF     SUNNY     62  50  64 CALM      30.16F
STUTTGART      SUNNY     61  48  63 S6        30.17S
MONTICELLO     SUNNY     65  48  54 CALM      30.17F

$$





USA.gov is the U.S. government's official web portal to all federal, state and local government web resources and services.